Time,TemperatureF,DewpointF,PressureIn,WindDirection,WindDirectionDegrees,WindSpeedMPH,WindSpeedGustMPH,Humidity,HourlyPrecipIn,Conditions,Clouds,dailyrainin,SoftwareType,DateUTC
2013-08-29 00:00:00,77.7,70.3,29.87,NNE,22,0.0,0.0,78,0.00,,,0.00,WUHU21523XXSP,2013-08-29 04:00:00,
2013-08-29 00:05:00,77.5,70.5,29.87,NNE,22,0.0,0.0,79,0.00,,,0.00,WUHU21523XXSP,2013-08-29 04:05:00,
2013-08-29 00:10:00,77.5,70.1,29.87,NNE,22,0.0,0.0,78,0.00,,,0.00,WUHU21523XXSP,2013-08-29 04:10:00,
2013-08-29 00:15:00,77.5,70.5,29.87,NNE,22,0.0,0.0,79,0.00,,,0.00,WUHU21523XXSP,2013-08-29 04:15:00,
2013-08-29 00:20:00,77.5,70.5,29.87,NNE,22,0.0,0.0,79,0.00,,,0.00,WUHU21523XXSP,2013-08-29 04:20:00,
2013-08-29 00:25:00,77.5,70.5,29.87,NNE,22,0.0,0.0,79,0.00,,,0.00,WUHU21523XXSP,2013-08-29 04:25:00,
2013-08-29 00:30:00,77.5,70.5,29.87,NNE,22,0.0,0.0,79,0.00,,,0.00,WUHU21523XXSP,2013-08-29 04:30:00,
2013-08-29 00:35:00,77.5,70.5,29.87,NNE,22,0.0,0.0,79,0.00,,,0.00,WUHU21523XXSP,2013-08-29 04:35:00,
2013-08-29 00:40:00,77.4,70.3,29.86,NNE,22,0.0,0.0,79,0.00,,,0.00,WUHU21523XXSP,2013-08-29 04:40:00,
2013-08-29 00:45:00,77.5,70.5,29.86,NNE,22,0.0,0.0,79,0.00,,,0.00,WUHU21523XXSP,2013-08-29 04:45:00,
2013-08-29 00:50:00,77.5,70.5,29.87,NNE,22,0.0,0.0,79,0.00,,,0.00,WUHU21523XXSP,2013-08-29 04:50:00,
2013-08-29 00:55:00,77.5,70.9,29.87,NNE,22,0.0,0.0,80,0.00,,,0.00,WUHU21523XXSP,2013-08-29 04:55:00,
2013-08-29 01:02:00,77.5,70.9,29.87,NNE,22,0.0,0.0,80,0.00,,,0.00,WUHU21523XXSP,2013-08-29 05:02:00,
2013-08-29 01:07:00,77.5,70.9,29.86,NNE,22,0.0,0.0,80,0.00,,,0.00,WUHU21523XXSP,2013-08-29 05:07:00,
2013-08-29 01:12:00,77.4,70.7,29.86,NNE,22,0.0,0.0,80,0.00,,,0.00,WUHU21523XXSP,2013-08-29 05:12:00,
2013-08-29 01:17:00,77.4,70.7,29.87,NNE,22,0.0,0.0,80,0.00,,,0.00,WUHU21523XXSP,2013-08-29 05:17:00,
2013-08-29 01:22:00,77.0,70.7,29.86,NNE,22,0.0,0.0,81,0.00,,,0.00,WUHU21523XXSP,2013-08-29 05:22:00,
2013-08-29 01:27:00,76.8,70.5,29.86,NNE,22,0.0,0.0,81,0.00,,,0.00,WUHU21523XXSP,2013-08-29 05:27:00,
2013-08-29 01:32:00,76.6,70.4,29.86,NNE,22,0.0,0.0,81,0.00,,,0.00,WUHU21523XXSP,2013-08-29 05:32:00,
2013-08-29 01:37:00,76.6,70.4,29.86,NNE,22,0.0,0.0,81,0.00,,,0.00,WUHU21523XXSP,2013-08-29 05:37:00,
2013-08-29 01:42:00,76.3,70.4,29.86,NNE,22,0.0,0.0,82,0.00,,,0.00,WUHU21523XXSP,2013-08-29 05:42:00,
2013-08-29 01:47:00,76.3,70.4,29.86,NNE,22,0.0,0.0,82,0.00,,,0.00,WUHU21523XXSP,2013-08-29 05:47:00,
2013-08-29 01:52:00,76.1,70.2,29.86,NNE,22,0.0,0.0,82,0.00,,,0.00,WUHU21523XXSP,2013-08-29 05:52:00,
2013-08-29 02:02:00,75.9,70.4,29.86,NNE,22,0.0,0.0,83,0.00,,,0.00,WUHU21523XXSP,2013-08-29 06:02:00,
2013-08-29 02:07:00,75.7,70.2,29.86,NNE,22,0.0,0.0,83,0.00,,,0.00,WUHU21523XXSP,2013-08-29 06:07:00,
2013-08-29 02:12:00,75.6,70.4,29.86,NNE,22,0.0,0.0,84,0.00,,,0.00,WUHU21523XXSP,2013-08-29 06:12:00,
2013-08-29 02:17:00,75.4,70.4,29.86,NNE,22,0.0,0.0,84,0.00,,,0.00,WUHU21523XXSP,2013-08-29 06:17:00,
2013-08-29 02:22:00,75.4,70.3,29.86,NNE,22,0.0,0.0,84,0.00,,,0.00,WUHU21523XXSP,2013-08-29 06:22:00,
2013-08-29 02:27:00,75.4,70.3,29.86,NNE,22,0.0,0.0,84,0.00,,,0.00,WUHU21523XXSP,2013-08-29 06:27:00,
2013-08-29 02:32:00,75.4,70.3,29.86,NNE,22,0.0,0.0,84,0.00,,,0.00,WUHU21523XXSP,2013-08-29 06:32:00,
2013-08-29 02:37:00,75.2,70.1,29.86,NNE,22,0.0,0.0,84,0.00,,,0.00,WUHU21523XXSP,2013-08-29 06:37:00,
2013-08-29 02:42:00,75.0,69.9,29.86,NNE,22,0.0,0.0,84,0.00,,,0.00,WUHU21523XXSP,2013-08-29 06:42:00,
2013-08-29 02:47:00,75.0,69.9,29.86,NNE,22,0.0,0.0,84,0.00,,,0.00,WUHU21523XXSP,2013-08-29 06:47:00,
2013-08-29 02:52:00,75.0,69.9,29.86,NNE,22,0.0,0.0,84,0.00,,,0.00,WUHU21523XXSP,2013-08-29 06:52:00,
2013-08-29 02:57:00,74.8,70.1,29.86,NNE,22,0.0,0.0,85,0.00,,,0.00,WUHU21523XXSP,2013-08-29 06:57:00,
2013-08-29 03:03:00,74.8,70.1,29.86,NNE,22,0.0,0.0,85,0.00,,,0.00,WUHU21523XXSP,2013-08-29 07:03:00,
2013-08-29 03:08:00,74.8,70.1,29.86,NNE,22,0.0,0.0,85,0.00,,,0.00,WUHU21523XXSP,2013-08-29 07:08:00,
2013-08-29 03:13:00,74.7,69.9,29.87,NNE,22,0.0,0.0,85,0.00,,,0.00,WUHU21523XXSP,2013-08-29 07:13:00,
2013-08-29 03:18:00,74.5,69.7,29.87,NNE,22,0.0,0.0,85,0.00,,,0.00,WUHU21523XXSP,2013-08-29 07:18:00,
2013-08-29 03:23:00,74.5,69.7,29.87,NNE,22,0.0,0.0,85,0.00,,,0.00,WUHU21523XXSP,2013-08-29 07:23:00,
2013-08-29 03:28:00,74.5,69.7,29.88,NNE,22,0.0,0.0,85,0.00,,,0.00,WUHU21523XXSP,2013-08-29 07:28:00,
2013-08-29 03:33:00,74.5,69.7,29.87,NNE,22,0.0,0.0,85,0.00,,,0.00,WUHU21523XXSP,2013-08-29 07:33:00,
2013-08-29 03:38:00,74.5,69.7,29.88,NNE,22,0.0,0.0,85,0.00,,,0.00,WUHU21523XXSP,2013-08-29 07:38:00,
2013-08-29 03:43:00,74.5,69.7,29.88,NNE,22,0.0,0.0,85,0.00,,,0.00,WUHU21523XXSP,2013-08-29 07:43:00,
2013-08-29 03:48:00,74.5,69.7,29.88,NNE,22,0.0,0.0,85,0.00,,,0.00,WUHU21523XXSP,2013-08-29 07:48:00,
2013-08-29 03:53:00,74.5,69.7,29.88,NNE,22,0.0,0.0,85,0.00,,,0.00,WUHU21523XXSP,2013-08-29 07:53:00,
2013-08-29 03:58:00,74.5,70.1,29.87,NNE,22,0.0,0.0,86,0.00,,,0.00,WUHU21523XXSP,2013-08-29 07:58:00,
2013-08-29 04:03:00,74.5,70.1,29.87,NNE,22,0.0,0.0,86,0.00,,,0.00,WUHU21523XXSP,2013-08-29 08:03:00,
2013-08-29 04:08:00,74.5,70.1,29.87,NNE,22,0.0,0.0,86,0.00,,,0.00,WUHU21523XXSP,2013-08-29 08:08:00,
2013-08-29 04:13:00,74.5,70.1,29.87,NNE,22,0.0,0.0,86,0.00,,,0.00,WUHU21523XXSP,2013-08-29 08:13:00,
2013-08-29 04:18:00,74.5,70.1,29.87,NNE,22,0.0,0.0,86,0.00,,,0.00,WUHU21523XXSP,2013-08-29 08:18:00,
2013-08-29 04:23:00,74.3,69.9,29.87,NNE,22,0.0,0.0,86,0.00,,,0.00,WUHU21523XXSP,2013-08-29 08:23:00,
2013-08-29 04:28:00,74.3,69.9,29.87,NNE,22,0.0,0.0,86,0.00,,,0.00,WUHU21523XXSP,2013-08-29 08:28:00,
2013-08-29 04:33:00,74.1,69.7,29.87,NNE,22,0.0,0.0,86,0.00,,,0.00,WUHU21523XXSP,2013-08-29 08:33:00,
2013-08-29 04:38:00,74.1,69.7,29.87,NNE,22,0.0,0.0,86,0.00,,,0.00,WUHU21523XXSP,2013-08-29 08:38:00,
2013-08-29 04:43:00,74.1,69.7,29.87,NNE,22,0.0,0.0,86,0.00,,,0.00,WUHU21523XXSP,2013-08-29 08:43:00,
2013-08-29 04:48:00,74.1,69.7,29.87,NNE,22,0.0,0.0,86,0.00,,,0.00,WUHU21523XXSP,2013-08-29 08:48:00,
2013-08-29 04:53:00,73.9,69.9,29.87,NNE,22,0.0,0.0,87,0.00,,,0.00,WUHU21523XXSP,2013-08-29 08:53:00,
2013-08-29 04:58:00,73.9,69.9,29.87,NNE,22,0.0,0.0,87,0.00,,,0.00,WUHU21523XXSP,2013-08-29 08:58:00,
2013-08-29 05:03:00,73.9,69.9,29.87,NNE,22,0.0,0.0,87,0.00,,,0.00,WUHU21523XXSP,2013-08-29 09:03:00,
2013-08-29 05:08:00,73.8,69.7,29.88,NNE,22,0.0,0.0,87,0.00,,,0.00,WUHU21523XXSP,2013-08-29 09:08:00,
2013-08-29 05:13:00,73.8,69.7,29.88,NNE,22,0.0,0.0,87,0.00,,,0.00,WUHU21523XXSP,2013-08-29 09:13:00,
2013-08-29 05:18:00,73.8,69.7,29.88,NNE,22,0.0,0.0,87,0.00,,,0.00,WUHU21523XXSP,2013-08-29 09:18:00,
2013-08-29 05:23:00,73.8,69.7,29.88,NNE,22,0.0,0.0,87,0.00,,,0.00,WUHU21523XXSP,2013-08-29 09:23:00,
2013-08-29 05:28:00,73.6,69.5,29.88,NNE,22,0.0,0.0,87,0.00,,,0.00,WUHU21523XXSP,2013-08-29 09:28:00,
2013-08-29 05:33:00,73.6,69.5,29.88,NNE,22,0.0,0.0,87,0.00,,,0.00,WUHU21523XXSP,2013-08-29 09:33:00,
2013-08-29 05:38:00,73.6,69.5,29.88,NNE,22,0.0,0.0,87,0.00,,,0.00,WUHU21523XXSP,2013-08-29 09:38:00,
2013-08-29 05:43:00,73.6,69.5,29.88,NNE,22,0.0,0.0,87,0.00,,,0.00,WUHU21523XXSP,2013-08-29 09:43:00,
2013-08-29 05:48:00,73.6,69.5,29.88,NNE,22,0.0,0.0,87,0.00,,,0.00,WUHU21523XXSP,2013-08-29 09:48:00,
2013-08-29 05:53:00,73.6,69.5,29.89,NNE,22,0.0,0.0,87,0.00,,,0.00,WUHU21523XXSP,2013-08-29 09:53:00,
2013-08-29 05:58:00,73.6,69.8,29.88,NNE,22,0.0,0.0,88,0.00,,,0.00,WUHU21523XXSP,2013-08-29 09:58:00,
2013-08-29 06:03:00,73.6,69.8,29.88,NNE,22,0.0,0.0,88,0.00,,,0.00,WUHU21523XXSP,2013-08-29 10:03:00,
2013-08-29 06:08:00,73.6,69.7,29.88,NNE,22,0.0,0.0,88,0.00,,,0.00,WUHU21523XXSP,2013-08-29 10:08:00,
2013-08-29 06:13:00,73.4,69.7,29.88,NNE,22,0.0,0.0,88,0.00,,,0.00,WUHU21523XXSP,2013-08-29 10:13:00,
2013-08-29 06:18:00,73.6,69.8,29.89,NNE,22,0.0,0.0,88,0.00,,,0.00,WUHU21523XXSP,2013-08-29 10:18:00,
2013-08-29 06:23:00,73.4,69.7,29.89,NNE,22,0.0,0.0,88,0.00,,,0.00,WUHU21523XXSP,2013-08-29 10:23:00,
2013-08-29 06:28:00,73.6,69.8,29.89,NNE,22,0.0,0.0,88,0.00,,,0.00,WUHU21523XXSP,2013-08-29 10:28:00,
2013-08-29 06:33:00,73.6,69.8,29.89,NNE,22,0.0,0.0,88,0.00,,,0.00,WUHU21523XXSP,2013-08-29 10:33:00,
2013-08-29 06:38:00,73.6,69.8,29.90,NNE,22,0.0,0.0,88,0.00,,,0.00,WUHU21523XXSP,2013-08-29 10:38:00,
2013-08-29 06:43:00,73.6,69.8,29.91,NNE,22,0.0,0.0,88,0.00,,,0.00,WUHU21523XXSP,2013-08-29 10:43:00,
2013-08-29 06:48:00,73.6,69.8,29.91,NNE,22,0.0,0.0,88,0.00,,,0.00,WUHU21523XXSP,2013-08-29 10:48:00,
2013-08-29 06:53:00,73.6,69.8,29.91,NNE,22,0.0,0.0,88,0.00,,,0.00,WUHU21523XXSP,2013-08-29 10:53:00,
2013-08-29 06:58:00,73.8,70.0,29.91,NNE,22,0.0,0.0,88,0.00,,,0.00,WUHU21523XXSP,2013-08-29 10:58:00,
2013-08-29 07:03:00,73.8,70.0,29.91,NNE,22,0.0,0.0,88,0.00,,,0.00,WUHU21523XXSP,2013-08-29 11:03:00,
2013-08-29 07:08:00,73.8,70.0,29.91,NNE,22,0.0,0.0,88,0.00,,,0.00,WUHU21523XXSP,2013-08-29 11:08:00,
2013-08-29 07:13:00,73.8,70.0,29.91,NNE,22,0.0,0.0,88,0.00,,,0.00,WUHU21523XXSP,2013-08-29 11:13:00,
2013-08-29 07:18:00,73.8,70.0,29.92,ENE,67,0.0,0.0,88,0.00,,,0.00,WUHU21523XXSP,2013-08-29 11:18:00,
2013-08-29 07:23:00,73.8,70.0,29.92,ENE,67,0.0,0.0,88,0.00,,,0.00,WUHU21523XXSP,2013-08-29 11:23:00,
2013-08-29 07:28:00,73.8,70.0,29.92,ENE,67,0.0,0.0,88,0.00,,,0.00,WUHU21523XXSP,2013-08-29 11:28:00,
2013-08-29 07:33:00,73.8,70.0,29.93,ENE,67,0.0,0.0,88,0.00,,,0.00,WUHU21523XXSP,2013-08-29 11:33:00,
2013-08-29 07:38:00,73.8,70.0,29.93,ENE,67,0.0,0.0,88,0.00,,,0.00,WUHU21523XXSP,2013-08-29 11:38:00,
2013-08-29 07:43:00,73.9,70.2,29.93,ENE,67,0.0,0.0,88,0.00,,,0.00,WUHU21523XXSP,2013-08-29 11:43:00,
2013-08-29 07:48:00,73.9,70.2,29.93,ENE,67,0.0,0.0,88,0.00,,,0.00,WUHU21523XXSP,2013-08-29 11:48:00,
2013-08-29 07:53:00,73.9,70.2,29.93,ENE,67,0.0,0.0,88,0.00,,,0.00,WUHU21523XXSP,2013-08-29 11:53:00,
2013-08-29 07:58:00,73.9,70.5,29.93,ENE,67,0.0,0.0,89,0.00,,,0.00,WUHU21523XXSP,2013-08-29 11:58:00,
2013-08-29 08:03:00,73.9,70.5,29.94,ENE,67,0.0,0.0,89,0.00,,,0.00,WUHU21523XXSP,2013-08-29 12:03:00,
2013-08-29 08:08:00,73.9,70.5,29.94,ENE,67,0.0,0.0,89,0.00,,,0.00,WUHU21523XXSP,2013-08-29 12:08:00,
2013-08-29 08:13:00,73.9,70.5,29.94,ENE,67,0.0,0.0,89,0.00,,,0.00,WUHU21523XXSP,2013-08-29 12:13:00,
2013-08-29 08:18:00,73.9,70.5,29.94,ENE,67,0.0,0.0,89,0.00,,,0.00,WUHU21523XXSP,2013-08-29 12:18:00,
2013-08-29 08:23:00,73.9,70.5,29.94,ENE,67,0.0,0.0,89,0.00,,,0.00,WUHU21523XXSP,2013-08-29 12:23:00,
2013-08-29 08:28:00,73.9,70.5,29.94,ENE,67,0.0,0.0,89,0.00,,,0.00,WUHU21523XXSP,2013-08-29 12:28:00,
2013-08-29 08:33:00,74.1,70.7,29.94,ENE,67,0.0,0.0,89,0.00,,,0.00,WUHU21523XXSP,2013-08-29 12:33:00,
2013-08-29 08:38:00,74.1,70.7,29.95,ENE,67,0.0,0.0,89,0.00,,,0.00,WUHU21523XXSP,2013-08-29 12:38:00,
2013-08-29 08:43:00,73.9,70.5,29.95,ENE,67,0.0,0.0,89,0.00,,,0.00,WUHU21523XXSP,2013-08-29 12:43:00,
2013-08-29 08:48:00,74.1,70.7,29.95,ENE,67,0.0,0.0,89,0.00,,,0.00,WUHU21523XXSP,2013-08-29 12:48:00,
2013-08-29 08:53:00,73.9,70.5,29.96,NE,45,0.0,0.0,89,0.00,,,0.00,WUHU21523XXSP,2013-08-29 12:53:00,
2013-08-29 08:58:00,73.9,70.5,29.96,NE,45,0.0,0.0,89,0.00,,,0.00,WUHU21523XXSP,2013-08-29 12:58:00,
2013-08-29 09:03:00,73.9,70.5,29.96,NE,45,0.0,0.0,89,0.00,,,0.00,WUHU21523XXSP,2013-08-29 13:03:00,
2013-08-29 09:08:00,73.9,70.9,29.96,ESE,112,0.0,0.0,90,0.08,,,0.02,WUHU21523XXSP,2013-08-29 13:08:00,
2013-08-29 09:13:00,73.6,70.5,29.96,ESE,112,0.0,0.0,90,0.12,,,0.10,WUHU21523XXSP,2013-08-29 13:13:00,
2013-08-29 09:18:00,73.4,70.3,29.96,ESE,112,0.0,0.0,90,0.14,,,0.14,WUHU21523XXSP,2013-08-29 13:18:00,
2013-08-29 09:23:00,73.2,70.5,29.96,ESE,112,0.0,0.0,91,0.14,,,0.14,WUHU21523XXSP,2013-08-29 13:23:00,
2013-08-29 09:28:00,73.4,70.6,29.96,ESE,112,0.0,0.0,91,0.14,,,0.14,WUHU21523XXSP,2013-08-29 13:28:00,
2013-08-29 09:33:00,73.4,70.6,29.96,ESE,112,0.0,0.0,91,0.14,,,0.14,WUHU21523XXSP,2013-08-29 13:33:00,
2013-08-29 09:38:00,73.4,71.0,29.96,ESE,112,0.0,0.0,92,0.14,,,0.14,WUHU21523XXSP,2013-08-29 13:38:00,
2013-08-29 09:43:00,73.6,71.1,29.96,ESE,112,0.0,0.0,92,0.14,,,0.14,WUHU21523XXSP,2013-08-29 13:43:00,
2013-08-29 09:48:00,73.8,71.3,29.96,ESE,112,0.0,0.0,92,0.14,,,0.14,WUHU21523XXSP,2013-08-29 13:48:00,
2013-08-29 09:53:00,73.8,71.3,29.96,ESE,112,0.0,0.0,92,0.14,,,0.14,WUHU21523XXSP,2013-08-29 13:53:00,
2013-08-29 09:58:00,73.9,71.3,29.96,ESE,112,0.0,0.0,92,0.14,,,0.14,WUHU21523XXSP,2013-08-29 13:58:00,
2013-08-29 10:03:00,73.9,71.5,29.96,ESE,112,0.0,0.0,92,0.12,,,0.14,WUHU21523XXSP,2013-08-29 14:03:00,
2013-08-29 10:08:00,74.1,71.7,29.97,ESE,112,0.0,0.0,92,0.06,,,0.14,WUHU21523XXSP,2013-08-29 14:08:00,
2013-08-29 10:13:00,74.3,71.9,29.96,East,90,0.0,0.0,92,0.00,,,0.14,WUHU21523XXSP,2013-08-29 14:13:00,
2013-08-29 10:18:00,74.3,71.9,29.96,East,90,0.0,0.0,92,0.00,,,0.14,WUHU21523XXSP,2013-08-29 14:18:00,
2013-08-29 10:23:00,74.5,72.0,29.96,East,90,0.0,0.0,92,0.00,,,0.14,WUHU21523XXSP,2013-08-29 14:23:00,
2013-08-29 10:28:00,74.5,72.0,29.96,East,90,0.0,0.0,92,0.00,,,0.14,WUHU21523XXSP,2013-08-29 14:28:00,
2013-08-29 10:33:00,74.7,72.2,29.96,East,90,0.0,0.0,92,0.00,,,0.14,WUHU21523XXSP,2013-08-29 14:33:00,
2013-08-29 10:38:00,74.8,72.4,29.97,ENE,67,0.0,0.0,92,0.00,,,0.14,WUHU21523XXSP,2013-08-29 14:38:00,
2013-08-29 10:43:00,75.0,72.9,29.97,ENE,67,0.0,0.0,93,0.00,,,0.14,WUHU21523XXSP,2013-08-29 14:43:00,
2013-08-29 10:48:00,75.4,73.2,29.97,ENE,67,0.0,0.0,93,0.00,,,0.14,WUHU21523XXSP,2013-08-29 14:48:00,
2013-08-29 10:53:00,75.4,73.2,29.97,ENE,67,0.0,0.0,93,0.00,,,0.14,WUHU21523XXSP,2013-08-29 14:53:00,
2013-08-29 10:58:00,75.7,73.6,29.97,NNE,22,0.0,0.0,93,0.00,,,0.14,WUHU21523XXSP,2013-08-29 14:58:00,
2013-08-29 11:03:00,75.9,73.8,29.97,NNE,22,0.0,0.0,93,0.00,,,0.14,WUHU21523XXSP,2013-08-29 15:03:00,
2013-08-29 11:08:00,76.1,73.7,29.97,ESE,112,0.0,0.0,92,0.00,,,0.14,WUHU21523XXSP,2013-08-29 15:08:00,
2013-08-29 11:13:00,76.3,74.1,29.98,NE,45,0.0,0.0,93,0.00,,,0.14,WUHU21523XXSP,2013-08-29 15:13:00,
2013-08-29 11:18:00,76.6,74.2,29.97,NE,45,0.0,0.0,92,0.00,,,0.14,WUHU21523XXSP,2013-08-29 15:18:00,
2013-08-29 11:23:00,76.8,74.4,29.97,NE,45,0.0,0.0,92,0.00,,,0.14,WUHU21523XXSP,2013-08-29 15:23:00,
2013-08-29 11:28:00,76.8,74.1,29.97,NE,45,0.0,0.0,91,0.00,,,0.14,WUHU21523XXSP,2013-08-29 15:28:00,
2013-08-29 11:33:00,77.2,74.4,29.97,NNE,22,0.0,0.0,91,0.00,,,0.14,WUHU21523XXSP,2013-08-29 15:33:00,
2013-08-29 11:38:00,77.5,74.8,29.97,NE,45,0.0,0.0,91,0.00,,,0.14,WUHU21523XXSP,2013-08-29 15:38:00,
2013-08-29 11:43:00,77.5,74.1,29.97,South,180,0.0,0.0,89,0.00,,,0.14,WUHU21523XXSP,2013-08-29 15:43:00,
2013-08-29 11:48:00,77.7,74.3,29.97,SW,225,0.0,0.0,89,0.00,,,0.14,WUHU21523XXSP,2013-08-29 15:48:00,
2013-08-29 11:58:00,77.9,74.1,29.97,North,0,0.0,0.0,88,0.00,,,0.14,WUHU21523XXSP,2013-08-29 15:58:00,
2013-08-29 12:03:00,78.1,74.3,29.98,NW,315,0.0,0.0,88,0.00,,,0.14,WUHU21523XXSP,2013-08-29 16:03:00,
2013-08-29 12:08:00,78.4,74.7,29.97,East,90,0.0,0.0,88,0.00,,,0.14,WUHU21523XXSP,2013-08-29 16:08:00,
2013-08-29 12:13:00,78.4,74.3,29.97,ENE,67,0.0,0.0,87,0.00,,,0.14,WUHU21523XXSP,2013-08-29 16:13:00,
2013-08-29 12:18:00,78.4,74.3,29.97,SSW,202,0.0,0.0,87,0.00,,,0.14,WUHU21523XXSP,2013-08-29 16:18:00,
2013-08-29 12:23:00,78.6,74.1,29.97,South,180,0.0,0.0,86,0.00,,,0.14,WUHU21523XXSP,2013-08-29 16:23:00,
2013-08-29 12:28:00,79.2,74.3,29.97,SW,225,0.0,0.0,85,0.00,,,0.14,WUHU21523XXSP,2013-08-29 16:28:00,
2013-08-29 12:33:00,79.2,73.9,29.97,South,180,0.0,0.0,84,0.00,,,0.14,WUHU21523XXSP,2013-08-29 16:33:00,
2013-08-29 12:38:00,79.3,74.1,29.97,South,180,0.0,0.0,84,0.00,,,0.14,WUHU21523XXSP,2013-08-29 16:38:00,
2013-08-29 12:43:00,79.7,74.4,29.96,East,90,0.0,0.0,84,0.00,,,0.14,WUHU21523XXSP,2013-08-29 16:43:00,
2013-08-29 12:48:00,79.9,74.6,29.97,ENE,67,0.0,0.0,84,0.00,,,0.14,WUHU21523XXSP,2013-08-29 16:48:00,
2013-08-29 12:53:00,80.2,74.9,29.97,SW,225,0.0,0.0,84,0.00,,,0.14,WUHU21523XXSP,2013-08-29 16:53:00,
2013-08-29 12:58:00,80.4,75.1,29.97,WSW,247,0.0,0.0,84,0.00,,,0.14,WUHU21523XXSP,2013-08-29 16:58:00,
2013-08-29 13:03:00,80.4,75.1,29.97,East,90,0.0,0.0,84,0.00,,,0.14,WUHU21523XXSP,2013-08-29 17:03:00,
2013-08-29 13:08:00,80.4,75.1,29.96,East,90,0.0,0.0,84,0.00,,,0.14,WUHU21523XXSP,2013-08-29 17:08:00,
2013-08-29 13:13:00,80.4,74.4,29.96,SE,135,0.0,0.0,82,0.00,,,0.14,WUHU21523XXSP,2013-08-29 17:13:00,
2013-08-29 13:18:00,80.8,74.8,29.96,ENE,67,0.0,0.0,82,0.00,,,0.14,WUHU21523XXSP,2013-08-29 17:18:00,
2013-08-29 13:23:00,81.0,75.0,29.96,WNW,292,0.0,0.0,82,0.00,,,0.14,WUHU21523XXSP,2013-08-29 17:23:00,
2013-08-29 13:28:00,81.3,75.0,29.96,South,180,0.0,0.0,81,0.00,,,0.14,WUHU21523XXSP,2013-08-29 17:28:00,
2013-08-29 13:33:00,81.7,75.0,29.96,SSE,157,0.0,0.0,80,0.00,,,0.14,WUHU21523XXSP,2013-08-29 17:33:00,
2013-08-29 13:38:00,81.7,75.0,29.96,South,180,0.0,0.0,80,0.00,,,0.14,WUHU21523XXSP,2013-08-29 17:38:00,
2013-08-29 13:43:00,81.9,74.8,29.96,South,180,0.0,0.0,79,0.00,,,0.14,WUHU21523XXSP,2013-08-29 17:43:00,
2013-08-29 13:48:00,82.0,74.6,29.96,SSW,202,0.0,0.0,78,0.00,,,0.14,WUHU21523XXSP,2013-08-29 17:48:00,
2013-08-29 13:53:00,82.2,74.7,29.96,NNW,337,0.0,0.0,78,0.00,,,0.14,WUHU21523XXSP,2013-08-29 17:53:00,
2013-08-29 13:58:00,82.4,74.9,29.96,NNW,337,0.0,0.0,78,0.00,,,0.14,WUHU21523XXSP,2013-08-29 17:58:00,
2013-08-29 14:03:00,82.6,75.1,29.96,NNE,22,0.0,0.0,78,0.00,,,0.14,WUHU21523XXSP,2013-08-29 18:03:00,
2013-08-29 14:08:00,82.8,74.4,29.96,NNE,22,0.0,0.0,76,0.00,,,0.14,WUHU21523XXSP,2013-08-29 18:08:00,
2013-08-29 14:13:00,82.8,74.4,29.96,NNW,337,0.0,0.0,76,0.00,,,0.14,WUHU21523XXSP,2013-08-29 18:13:00,
2013-08-29 14:18:00,82.6,74.2,29.96,NNW,337,0.0,0.0,76,0.00,,,0.14,WUHU21523XXSP,2013-08-29 18:18:00,
2013-08-29 14:23:00,82.6,74.7,29.96,NNW,337,0.0,0.0,77,0.00,,,0.14,WUHU21523XXSP,2013-08-29 18:23:00,
2013-08-29 14:28:00,83.1,74.8,29.96,SSW,202,0.0,0.0,76,0.00,,,0.14,WUHU21523XXSP,2013-08-29 18:28:00,
2013-08-29 14:33:00,83.5,75.1,29.95,North,0,0.0,0.0,76,0.00,,,0.14,WUHU21523XXSP,2013-08-29 18:33:00,
2013-08-29 14:38:00,83.8,75.4,29.95,ENE,67,0.0,0.0,76,0.00,,,0.14,WUHU21523XXSP,2013-08-29 18:38:00,
2013-08-29 14:43:00,83.7,74.9,29.95,SE,135,0.0,0.0,75,0.00,,,0.14,WUHU21523XXSP,2013-08-29 18:43:00,
2013-08-29 14:48:00,83.5,74.7,29.95,SE,135,0.0,0.0,75,0.00,,,0.14,WUHU21523XXSP,2013-08-29 18:48:00,
2013-08-29 14:53:00,83.1,74.4,29.95,NE,45,0.0,0.0,75,0.00,,,0.14,WUHU21523XXSP,2013-08-29 18:53:00,
2013-08-29 14:58:00,83.3,74.1,29.95,NE,45,0.0,0.0,74,0.00,,,0.14,WUHU21523XXSP,2013-08-29 18:58:00,
2013-08-29 15:03:00,83.5,74.3,29.95,East,90,0.0,0.0,74,0.00,,,0.14,WUHU21523XXSP,2013-08-29 19:03:00,
2013-08-29 15:08:00,83.7,74.9,29.94,East,90,0.0,0.0,75,0.00,,,0.14,WUHU21523XXSP,2013-08-29 19:08:00,
2013-08-29 15:13:00,83.8,74.6,29.94,SSW,202,0.0,0.0,74,0.00,,,0.14,WUHU21523XXSP,2013-08-29 19:13:00,
2013-08-29 15:18:00,83.8,74.2,29.94,South,180,0.0,0.0,73,0.00,,,0.14,WUHU21523XXSP,2013-08-29 19:18:00,
2013-08-29 15:23:00,83.8,74.2,29.94,NNW,337,0.0,0.0,73,0.00,,,0.14,WUHU21523XXSP,2013-08-29 19:23:00,
2013-08-29 15:28:00,84.0,74.4,29.94,SW,225,0.0,0.0,73,0.00,,,0.14,WUHU21523XXSP,2013-08-29 19:28:00,
2013-08-29 15:33:00,84.4,74.4,29.94,NNE,22,0.0,0.0,72,0.00,,,0.14,WUHU21523XXSP,2013-08-29 19:33:00,
2013-08-29 15:38:00,84.6,74.4,29.94,NNE,22,0.0,0.0,72,0.00,,,0.14,WUHU21523XXSP,2013-08-29 19:38:00,
2013-08-29 15:43:00,84.7,74.7,29.94,SSW,202,0.0,0.0,71,0.00,,,0.14,WUHU21523XXSP,2013-08-29 19:43:00,
2013-08-29 15:48:00,84.9,74.5,29.94,NW,315,0.0,0.0,71,0.00,,,0.14,WUHU21523XXSP,2013-08-29 19:48:00,
2013-08-29 15:53:00,84.9,74.5,29.94,East,90,0.0,0.0,71,0.00,,,0.14,WUHU21523XXSP,2013-08-29 19:53:00,
2013-08-29 15:58:00,84.7,75.1,29.94,South,180,0.0,0.0,73,0.00,,,0.14,WUHU21523XXSP,2013-08-29 19:58:00,
2013-08-29 16:03:00,84.7,74.7,29.94,ESE,112,0.0,0.0,72,0.00,,,0.14,WUHU21523XXSP,2013-08-29 20:03:00,
2013-08-29 16:08:00,84.7,75.1,29.94,South,180,0.0,0.0,73,0.00,,,0.14,WUHU21523XXSP,2013-08-29 20:08:00,
2013-08-29 16:13:00,84.7,75.1,29.94,SW,225,0.0,0.0,73,0.00,,,0.14,WUHU21523XXSP,2013-08-29 20:13:00,
2013-08-29 16:18:00,84.6,74.9,29.94,SW,225,0.0,0.0,73,0.00,,,0.14,WUHU21523XXSP,2013-08-29 20:18:00,
2013-08-29 16:23:00,84.2,75.0,29.94,SE,135,0.0,0.0,74,0.00,,,0.14,WUHU21523XXSP,2013-08-29 20:23:00,
2013-08-29 16:28:00,83.8,74.8,29.94,SW,225,0.0,0.0,74,0.00,,,0.14,WUHU21523XXSP,2013-08-29 20:28:00,
2013-08-29 16:33:00,83.7,74.6,29.94,ENE,67,0.0,0.0,74,0.00,,,0.14,WUHU21523XXSP,2013-08-29 20:33:00,
2013-08-29 16:38:00,83.7,74.3,29.94,South,180,0.0,0.0,74,0.00,,,0.14,WUHU21523XXSP,2013-08-29 20:38:00,
2013-08-29 16:43:00,83.8,75.0,29.94,ENE,67,0.0,0.0,75,0.00,,,0.14,WUHU21523XXSP,2013-08-29 20:43:00,
2013-08-29 16:48:00,83.8,75.4,29.94,SE,135,0.0,0.0,76,0.00,,,0.14,WUHU21523XXSP,2013-08-29 20:48:00,
2013-08-29 16:53:00,83.8,75.0,29.94,South,180,0.0,0.0,75,0.00,,,0.14,WUHU21523XXSP,2013-08-29 20:53:00,
2013-08-29 16:59:00,83.7,74.5,29.95,SW,225,0.0,0.0,74,0.00,,,0.14,WUHU21523XXSP,2013-08-29 20:59:00,
2013-08-29 17:08:00,83.5,74.7,29.94,SSE,157,0.0,0.0,75,0.00,,,0.14,WUHU21523XXSP,2013-08-29 21:08:00,
2013-08-29 17:13:00,83.3,74.1,29.95,WSW,247,0.0,0.0,74,0.00,,,0.14,WUHU21523XXSP,2013-08-29 21:13:00,
2013-08-29 17:18:00,83.3,74.1,29.95,SE,135,0.0,0.0,74,0.00,,,0.14,WUHU21523XXSP,2013-08-29 21:18:00,
2013-08-29 17:23:00,83.1,73.9,29.95,SSW,202,0.0,0.0,74,0.00,,,0.14,WUHU21523XXSP,2013-08-29 21:23:00,
2013-08-29 17:28:00,83.1,74.4,29.95,NNE,22,0.0,0.0,75,0.00,,,0.14,WUHU21523XXSP,2013-08-29 21:28:00,
2013-08-29 17:33:00,82.9,74.2,29.95,SW,225,0.0,0.0,75,0.00,,,0.14,WUHU21523XXSP,2013-08-29 21:33:00,
2013-08-29 17:38:00,82.9,73.8,29.95,SSW,202,0.0,0.0,74,0.00,,,0.14,WUHU21523XXSP,2013-08-29 21:38:00,
2013-08-29 17:43:00,82.6,73.4,29.95,SSE,157,0.0,0.0,74,0.00,,,0.14,WUHU21523XXSP,2013-08-29 21:43:00,
2013-08-29 17:48:00,82.4,73.3,29.95,South,180,0.0,0.0,74,0.00,,,0.14,WUHU21523XXSP,2013-08-29 21:48:00,
2013-08-29 17:53:00,82.2,73.5,29.95,South,180,0.0,0.0,75,0.00,,,0.14,WUHU21523XXSP,2013-08-29 21:53:00,
2013-08-29 17:58:00,82.2,73.5,29.96,South,180,0.0,0.0,75,0.00,,,0.14,WUHU21523XXSP,2013-08-29 21:58:00,
2013-08-29 18:03:00,82.2,73.5,29.96,WSW,247,0.0,0.0,75,0.00,,,0.14,WUHU21523XXSP,2013-08-29 22:03:00,
2013-08-29 18:08:00,82.0,73.3,29.96,SSW,202,0.0,0.0,75,0.00,,,0.14,WUHU21523XXSP,2013-08-29 22:08:00,
2013-08-29 18:13:00,81.7,73.0,29.96,SE,135,0.0,0.0,75,0.00,,,0.14,WUHU21523XXSP,2013-08-29 22:13:00,
2013-08-29 18:18:00,81.5,72.8,29.96,South,180,0.0,0.0,75,0.00,,,0.14,WUHU21523XXSP,2013-08-29 22:18:00,
2013-08-29 18:23:00,81.3,72.6,29.96,South,180,0.0,0.0,75,0.00,,,0.14,WUHU21523XXSP,2013-08-29 22:23:00,
2013-08-29 18:28:00,81.0,72.3,29.96,SW,225,0.0,0.0,75,0.00,,,0.14,WUHU21523XXSP,2013-08-29 22:28:00,
2013-08-29 18:33:00,80.6,72.4,29.96,SW,225,0.0,0.0,76,0.00,,,0.14,WUHU21523XXSP,2013-08-29 22:33:00,
2013-08-29 18:38:00,80.4,72.2,29.97,WSW,247,0.0,0.0,76,0.00,,,0.14,WUHU21523XXSP,2013-08-29 22:38:00,
2013-08-29 18:43:00,80.4,72.2,29.96,SW,225,0.0,0.0,76,0.00,,,0.14,WUHU21523XXSP,2013-08-29 22:43:00,
2013-08-29 18:48:00,80.4,72.6,29.96,NNE,22,0.0,0.0,77,0.00,,,0.14,WUHU21523XXSP,2013-08-29 22:48:00,
2013-08-29 18:53:00,80.4,72.6,29.96,SSW,202,0.0,0.0,77,0.00,,,0.14,WUHU21523XXSP,2013-08-29 22:53:00,
2013-08-29 18:58:00,80.2,72.0,29.97,ESE,112,0.0,0.0,76,0.00,,,0.14,WUHU21523XXSP,2013-08-29 22:58:00,
2013-08-29 19:03:00,80.2,72.0,29.96,South,180,0.0,0.0,76,0.00,,,0.14,WUHU21523XXSP,2013-08-29 23:03:00,
2013-08-29 19:08:00,80.2,72.0,29.96,SSW,202,0.0,0.0,76,0.00,,,0.14,WUHU21523XXSP,2013-08-29 23:08:00,
2013-08-29 19:13:00,80.1,71.8,29.97,SSW,202,0.0,0.0,76,0.00,,,0.14,WUHU21523XXSP,2013-08-29 23:13:00,
2013-08-29 19:18:00,79.9,71.6,29.97,ESE,112,0.0,0.0,76,0.00,,,0.14,WUHU21523XXSP,2013-08-29 23:18:00,
2013-08-29 19:23:00,79.9,71.6,29.97,SW,225,0.0,0.0,76,0.00,,,0.14,WUHU21523XXSP,2013-08-29 23:23:00,
2013-08-29 19:28:00,79.7,71.5,29.98,SSW,202,0.0,0.0,76,0.00,,,0.14,WUHU21523XXSP,2013-08-29 23:28:00,
2013-08-29 19:33:00,79.5,71.3,29.98,SSW,202,0.0,0.0,76,0.00,,,0.14,WUHU21523XXSP,2013-08-29 23:33:00,
2013-08-29 19:38:00,79.5,71.3,29.98,WSW,247,0.0,0.0,76,0.00,,,0.14,WUHU21523XXSP,2013-08-29 23:38:00,
2013-08-29 19:43:00,79.3,71.1,29.98,WSW,247,0.0,0.0,76,0.00,,,0.14,WUHU21523XXSP,2013-08-29 23:43:00,
2013-08-29 19:48:00,79.3,71.5,29.99,SW,225,0.0,0.0,77,0.00,,,0.14,WUHU21523XXSP,2013-08-29 23:48:00,
2013-08-29 19:53:00,79.0,71.1,29.99,North,0,0.0,0.0,77,0.00,,,0.14,WUHU21523XXSP,2013-08-29 23:53:00,
2013-08-29 19:58:00,79.0,71.1,29.99,NE,45,0.0,0.0,77,0.00,,,0.14,WUHU21523XXSP,2013-08-29 23:58:00,
2013-08-29 20:03:00,79.0,71.1,29.99,South,180,0.0,0.0,77,0.00,,,0.14,WUHU21523XXSP,2013-08-30 00:03:00,
2013-08-29 20:08:00,78.6,70.8,29.99,South,180,0.0,0.0,77,0.00,,,0.14,WUHU21523XXSP,2013-08-30 00:08:00,
2013-08-29 20:13:00,78.6,70.8,29.99,South,180,0.0,0.0,77,0.00,,,0.14,WUHU21523XXSP,2013-08-30 00:13:00,
2013-08-29 20:18:00,78.6,70.8,29.99,South,180,0.0,0.0,77,0.00,,,0.14,WUHU21523XXSP,2013-08-30 00:18:00,
2013-08-29 20:23:00,78.4,70.6,29.99,SW,225,0.0,0.0,77,0.00,,,0.14,WUHU21523XXSP,2013-08-30 00:23:00,
2013-08-29 20:28:00,78.4,70.6,29.99,SSW,202,0.0,0.0,77,0.00,,,0.14,WUHU21523XXSP,2013-08-30 00:28:00,
2013-08-29 20:33:00,78.1,70.3,30.00,SSW,202,0.0,0.0,77,0.00,,,0.14,WUHU21523XXSP,2013-08-30 00:33:00,
2013-08-29 20:38:00,78.1,70.6,29.99,SSW,202,0.0,0.0,78,0.00,,,0.14,WUHU21523XXSP,2013-08-30 00:38:00,
2013-08-29 20:43:00,77.9,70.5,30.01,SSW,202,0.0,0.0,78,0.00,,,0.14,WUHU21523XXSP,2013-08-30 00:43:00,
2013-08-29 20:48:00,77.9,70.5,30.01,South,180,0.0,0.0,78,0.00,,,0.14,WUHU21523XXSP,2013-08-30 00:48:00,
2013-08-29 20:53:00,77.7,70.3,30.01,SSE,157,0.0,0.0,78,0.00,,,0.14,WUHU21523XXSP,2013-08-30 00:53:00,
2013-08-29 20:58:00,77.7,70.3,30.01,SSE,157,0.0,0.0,78,0.00,,,0.14,WUHU21523XXSP,2013-08-30 00:58:00,
2013-08-29 21:03:00,77.5,70.1,30.02,SSE,157,0.0,0.0,78,0.00,,,0.14,WUHU21523XXSP,2013-08-30 01:03:00,
2013-08-29 21:08:00,77.4,69.9,30.02,SSE,157,0.0,0.0,78,0.00,,,0.14,WUHU21523XXSP,2013-08-30 01:08:00,
2013-08-29 21:13:00,77.4,69.9,30.02,SSE,157,0.0,0.0,78,0.00,,,0.14,WUHU21523XXSP,2013-08-30 01:13:00,
2013-08-29 21:18:00,77.2,70.1,30.02,South,180,0.0,0.0,79,0.00,,,0.14,WUHU21523XXSP,2013-08-30 01:18:00,
2013-08-29 21:23:00,77.0,70.0,30.02,ESE,112,0.0,0.0,79,0.00,,,0.14,WUHU21523XXSP,2013-08-30 01:23:00,
2013-08-29 21:28:00,76.8,69.8,30.02,ESE,112,0.0,0.0,79,0.00,,,0.14,WUHU21523XXSP,2013-08-30 01:28:00,
2013-08-29 21:33:00,76.8,69.8,30.02,SSE,157,0.0,0.0,79,0.00,,,0.14,WUHU21523XXSP,2013-08-30 01:33:00,
2013-08-29 21:38:00,76.6,69.6,30.03,WSW,247,0.0,0.0,79,0.00,,,0.14,WUHU21523XXSP,2013-08-30 01:38:00,
2013-08-29 21:43:00,76.6,69.6,30.03,WSW,247,0.0,0.0,79,0.00,,,0.14,WUHU21523XXSP,2013-08-30 01:43:00,
2013-08-29 21:48:00,76.5,69.9,30.03,WSW,247,0.0,0.0,80,0.00,,,0.14,WUHU21523XXSP,2013-08-30 01:48:00,
2013-08-29 21:53:00,76.3,69.7,30.03,WSW,247,0.0,0.0,80,0.00,,,0.14,WUHU21523XXSP,2013-08-30 01:53:00,
2013-08-29 21:58:00,76.3,69.7,30.03,WSW,247,0.0,0.0,80,0.00,,,0.14,WUHU21523XXSP,2013-08-30 01:58:00,
2013-08-29 22:03:00,76.1,69.5,30.03,WSW,247,0.0,0.0,80,0.00,,,0.14,WUHU21523XXSP,2013-08-30 02:03:00,
2013-08-29 22:08:00,75.9,69.4,30.03,WSW,247,0.0,0.0,80,0.00,,,0.14,WUHU21523XXSP,2013-08-30 02:08:00,
2013-08-29 22:13:00,75.9,69.7,30.03,WSW,247,0.0,0.0,81,0.00,,,0.14,WUHU21523XXSP,2013-08-30 02:13:00,
2013-08-29 22:18:00,75.9,69.7,30.04,WSW,247,0.0,0.0,81,0.00,,,0.14,WUHU21523XXSP,2013-08-30 02:18:00,
2013-08-29 22:23:00,75.7,69.5,30.04,SW,225,0.0,0.0,81,0.00,,,0.14,WUHU21523XXSP,2013-08-30 02:23:00,
2013-08-29 22:28:00,75.7,69.5,30.04,SW,225,0.0,0.0,81,0.00,,,0.14,WUHU21523XXSP,2013-08-30 02:28:00,
2013-08-29 22:33:00,75.6,69.4,30.04,SW,225,0.0,0.0,81,0.00,,,0.14,WUHU21523XXSP,2013-08-30 02:33:00,
2013-08-29 22:38:00,75.6,69.4,30.04,SW,225,0.0,0.0,81,0.00,,,0.14,WUHU21523XXSP,2013-08-30 02:38:00,
2013-08-29 22:43:00,75.6,69.4,30.03,SW,225,0.0,0.0,81,0.00,,,0.14,WUHU21523XXSP,2013-08-30 02:43:00,
2013-08-29 22:48:00,75.4,69.2,30.04,SW,225,0.0,0.0,81,0.00,,,0.14,WUHU21523XXSP,2013-08-30 02:48:00,
2013-08-29 22:53:00,75.4,69.2,30.04,SW,225,0.0,0.0,81,0.00,,,0.14,WUHU21523XXSP,2013-08-30 02:53:00,
2013-08-29 22:58:00,75.4,69.6,30.04,SW,225,0.0,0.0,82,0.00,,,0.14,WUHU21523XXSP,2013-08-30 02:58:00,
2013-08-29 23:03:00,75.2,69.4,30.04,SW,225,0.0,0.0,82,0.00,,,0.14,WUHU21523XXSP,2013-08-30 03:03:00,
2013-08-29 23:08:00,75.0,69.2,30.04,SW,225,0.0,0.0,82,0.00,,,0.14,WUHU21523XXSP,2013-08-30 03:08:00,
2013-08-29 23:13:00,75.0,69.2,30.04,SW,225,0.0,0.0,82,0.00,,,0.14,WUHU21523XXSP,2013-08-30 03:13:00,
2013-08-29 23:18:00,74.8,69.4,30.04,SW,225,0.0,0.0,83,0.00,,,0.14,WUHU21523XXSP,2013-08-30 03:18:00,
2013-08-29 23:23:00,74.8,69.4,30.04,SW,225,0.0,0.0,83,0.00,,,0.14,WUHU21523XXSP,2013-08-30 03:23:00,
2013-08-29 23:28:00,74.8,69.4,30.04,SW,225,0.0,0.0,83,0.00,,,0.14,WUHU21523XXSP,2013-08-30 03:28:00,
2013-08-29 23:33:00,74.8,69.4,30.04,SW,225,0.0,0.0,83,0.00,,,0.14,WUHU21523XXSP,2013-08-30 03:33:00,
2013-08-29 23:38:00,74.5,69.0,30.04,SW,225,0.0,0.0,83,0.00,,,0.14,WUHU21523XXSP,2013-08-30 03:38:00,
2013-08-29 23:43:00,74.5,69.0,30.04,SW,225,0.0,0.0,83,0.00,,,0.14,WUHU21523XXSP,2013-08-30 03:43:00,
2013-08-29 23:48:00,74.5,69.0,30.04,SW,225,0.0,0.0,83,0.00,,,0.14,WUHU21523XXSP,2013-08-30 03:48:00,
2013-08-29 23:53:00,74.3,68.8,30.04,SW,225,0.0,0.0,83,0.00,,,0.14,WUHU21523XXSP,2013-08-30 03:53:00,